闪电 1-32星 (MOLNIYA 1-32)

导读

MOLNIYA 1-32(闪电1-32)是苏联解体后由独立国家联合体(CIS)发射的一颗闪电系列通信卫星,于1965年开启的闪电一号系列组网卫星。该系列为适配高纬度通信需求,运行于倾角63.4度的“闪电轨道”——周期约半恒星日的大椭圆轨道,保证一天中绝大多数时间处于北半球可视范围,可覆盖苏联广阔领土,承担电视转播、邮电通信、军事通信等任务,是冷战时期苏联航天通信体系的重要组成部分。

Basic Information
目录编号:
8601
目录名称:
MOLNIYA 1-32
国际标识:
1976-006A
轨道中心:
EARTH
卫星名称:
闪电 1-32星
卫星全名:
闪电 1-32星 (MOLNIYA 1-32)
卫星状态:
在轨 (已飞行18450 天)
发射日期:
1976-01-22 UTC
国别 :
俄罗斯(独联体) (CIS)
星等 :
--
Orbit Information
数据来源 国际轨道数据 AOE轨道数据
星历时间 2026-07-23T15:45:56+0800
4天前
查看轨道信息
2026-07-25T02:00:00+0800
3天前
查看轨道信息
半长轴 26613.807km 26613.816km
偏心率 0.674958 0.6749642
轨道倾角 63.651° 63.652°
近地点辐角 276.015° 276.004°
升交点赤经 131.558° 131.415°
平近点角 16.792° 323.647°
近地点 2272.468km 2272.305km
远地点 38198.872km 38199.053km
周期 720.145分钟 720.146分钟
每日圈数 1.999596 1.999595
Detailed Information
平衡模式:
三轴稳定
覆盖范围:
全球
运营商:
俄罗斯国家航天集团
运营商所在国:
俄罗斯
制造商(研发单位):
普里克拉德诺伊·梅哈尼基设计局
制造商所在国:
俄罗斯联邦
使用方式:
暂无
Satellite Introduction
闪电(Molniya (Satellite))系列卫星是苏联/俄罗斯于1965年至2004年间发射的军事和通信卫星。这些卫星使用高度偏心的椭圆轨道,称为Molniya轨道(即闪电轨道),在高纬度地区具有较长的停留时间。该卫星状态未知。
2D Orbit Map
3D Orbit Map
Orbit Altitude Analysis Chart
Orbit Inclination Analysis Chart
Orbit Comprehensive Analysis Chart
View Comprehensive Chart